Location: Brienzwiler
(46.7508°N, 8.1014°E)
Time: 00:55:13
(UTC+00:00)

Cosmos 923 Rocket - Pass Details

Date: 05 July 2020
Orbit: 757 x 786 km, 74.0° (Epoch: 11 August)

Event Time Altitude Azimuth Distance (km) Brightness Sun altitude
Exits shadow 21:52:26 24° 188° (S) 1,553 5.1 -17.0°
Maximum altitude 21:55:37 72° 109° (ESE) 814 4.0 -17.2°
Drops below altitude 10° 22:00:54 10° 26° (NNE) 2,333 7.1 -17.6°
Sets 22:03:18 0° 24° (NNE) 3,269 7.9 -17.7°
